Home > Time Zones > World Clock > Weather > India > Thane > Past weeks

Flag for India Weather past 2 weeks in Thane, Maharashtra, India

Now
82 °F

More clouds than sun.


Feels Like: 91 °F
Forecast: 79 / 85 °F
Wind: 10 mph from West

Location: Mumbai / Santacruz

Current Time: Aug 5, 2015 at 6:12:43 PM

Latest Report: Aug 5, 2015 at 5:40 PM


Visibility: 4 mi

Pressure: 29.68 "Hg

Humidity: 84%

Dew point: 77 °F

Location of ThaneLocation

Historic Weather in Thane — Graph

°F

Thane temperature yesterday

Maximum temperature yesterday: 86 °F (at 10:40 AM)
Minimum temperature yesterday: 82 °F (at 12:10 AM)
Average temperature yesterday: 84 °F

Past Weeks' High & Low Weather Summary

 TemperatureHumidityPressure
High88 °F (Jul 26, 1:10 PM)100% (Jul 22, 8:10 PM)29.86 "Hg (Jul 22, 8:10 PM)
Low77 °F (Jul 22, 8:10 PM)62% (Aug 3, 1:10 PM)29.59 "Hg (Jul 21, 3:40 PM)
Average83 °F83%29.72 "Hg
* Reported Jul 21 3:40 PM — Aug 5 4:10 PM, Thane, Weather by CustomWeather, © 2015

Note: Actual official high and low records may vary slightly from our data, if they occured in-between our weather recording intervals... More about our weather records

Advertising

Thane weather history for previous 24 hours

 ConditionsComfort  
Time TempWeatherWind HumidityBarometerVisibility
4:10 PM
Wed, Aug 5
82 °FMore clouds than sun.12 mph84%29.68 "Hg2 mi
3:10 PM82 °FDrizzle. More clouds than sun.8 mph89%29.68 "Hg2 mi
2:40 PM82 °FMore clouds than sun.13 mph89%29.68 "Hg2 mi
2:10 PM82 °FDrizzle. More clouds than sun.13 mph89%29.68 "Hg2 mi
1:40 PM82 °FLight rain. More clouds than sun.12 mph89%29.68 "Hg2 mi
1:10 PM82 °FDrizzle. More clouds than sun.14 mph89%29.71 "Hg2 mi
12:40 PM82 °FDrizzle. More clouds than sun.14 mph84%29.74 "Hg2 mi
12:10 PM84 °FDrizzle. More clouds than sun.15 mph84%29.74 "Hg2 mi
11:40 AM84 °FMore clouds than sun.14 mph79%29.74 "Hg2 mi
11:10 AM84 °FMore clouds than sun.14 mph79%29.74 "Hg2 mi
10:40 AM84 °FMore clouds than sun.14 mph79%29.74 "Hg2 mi
10:10 AM84 °FMore clouds than sun.15 mph79%29.74 "Hg2 mi
9:40 AM84 °FMore clouds than sun.13 mph79%29.77 "Hg2 mi
9:10 AM82 °FMore clouds than sun.14 mph84%29.74 "Hg2 mi
8:40 AM82 °FMore clouds than sun.14 mph84%29.74 "Hg2 mi
8:10 AM82 °FMore clouds than sun.14 mph84%29.71 "Hg2 mi
7:40 AM82 °FBroken clouds.16 mph84%29.71 "Hg2 mi
7:10 AM82 °FBroken clouds.9 mph84%29.71 "Hg2 mi
6:40 AM82 °FPartly cloudy.15 mph84%29.71 "Hg2 mi
6:10 AM82 °FPartly cloudy.14 mph84%29.71 "Hg2 mi
5:40 AM82 °FPartly cloudy.13 mph84%29.71 "Hg2 mi
5:10 AM82 °FPartly cloudy.14 mph84%29.71 "Hg2 mi
4:40 AM82 °FPartly cloudy.13 mph84%29.68 "Hg2 mi
3:10 AM82 °FPartly cloudy.10 mph84%29.68 "Hg2 mi
2:40 AM82 °FPartly cloudy.15 mph79%29.68 "Hg2 mi
1:40 AM82 °FPartly cloudy.15 mph84%29.71 "Hg2 mi
1:10 AM82 °FPartly cloudy.14 mph84%29.71 "Hg2 mi
12:40 AM82 °FPartly cloudy.12 mph84%29.74 "Hg2 mi
11:40 PM
Tue, Aug 4
82 °FPartly cloudy.15 mph84%29.74 "Hg2 mi
10:40 PM82 °FPartly cloudy.12 mph84%29.74 "Hg2 mi
10:10 PM82 °FPartly cloudy.15 mph79%29.74 "Hg2 mi
9:40 PM82 °FPartly cloudy.15 mph84%29.74 "Hg2 mi
9:10 PM84 °FPartly cloudy.9 mph79%29.74 "Hg2 mi
8:40 PM84 °FPartly cloudy.15 mph79%29.71 "Hg2 mi
7:40 PM84 °FBroken clouds.15 mph74%29.68 "Hg2 mi
7:10 PM84 °FBroken clouds.16 mph79%29.68 "Hg2 mi
6:40 PM84 °FMore clouds than sun.16 mph79%29.68 "Hg2 mi
6:10 PM84 °FMore clouds than sun.14 mph79%29.68 "Hg2 mi
Weather by CustomWeather, © 2015

See weather overviewHow to use our weather pages